Latest Weather Observations for Padthaway

IDS60801

Issued at 10:35 pm CDT Thursday 30 October 2014 (issued every 30 minutes, with the page automatically refreshed every 10 minutes)

About weather observations | Map of weather stations | Latest weather observations for SA | Other Formats
Station Details ID: 026100 Name: PADTHAWAY SOUTH Lat: -36.65 Lon: 140.52 Height: 37.0 m
Data from the previous 72 hours. | See also: Recent months at Padthaway
Date/Time
CDT
Temp
°C
App
Temp
°C
Dew
Point
Rel
Hum
%
Delta-T
°C
Wind Press
QNH
hPa
Press
MSL
hPa
Rain
since 9 am
mm
Dir
 
Spd
km/h
Gust
km/h
Spd
kts
Gust
kts
30/10:30pm 11.0 8.8 7.9 81 1.5 ESE 9 11 5 6 - - 0.0
30/10:00pm 11.5 9.7 8.0 79 1.7 S 7 9 4 5 - - 0.0
30/09:30pm 12.6 10.8 8.1 74 2.2 S 7 9 4 5 - - 0.0
30/09:00pm 14.0 12.2 7.8 66 3.1 S 7 9 4 5 - - 0.0
30/08:30pm 14.4 12.8 8.1 66 3.1 SSW 6 9 3 5 - - 0.0
30/08:00pm 16.2 15.1 8.4 60 4.0 W 4 7 2 4 - - 0.0
30/07:30pm 17.9 16.3 8.2 53 5.0 W 6 9 3 5 - - 0.0
30/07:00pm 20.0 17.4 7.7 45 6.3 W 11 17 6 9 - - 0.0
30/06:30pm 21.3 18.0 8.2 43 6.9 W 15 20 8 11 - - 0.0
30/06:00pm 21.9 18.6 8.1 41 7.2 W 15 20 8 11 - - 0.0
30/05:30pm 22.5 19.2 8.2 40 7.5 W 15 22 8 12 - - 0.0
30/05:00pm 23.3 20.1 7.0 35 8.4 WSW 13 20 7 11 - - 0.0
30/04:30pm 23.1 19.6 7.2 36 8.3 W 15 22 8 12 - - 0.0
30/04:00pm 23.1 19.9 6.8 35 8.4 W 13 19 7 10 - - 0.0
30/03:30pm 22.9 19.8 7.4 37 8.1 W 13 24 7 13 - - 0.0
30/03:00pm 22.8 19.3 7.4 37 8.0 WNW 15 24 8 13 - - 0.0
30/02:30pm 22.6 19.6 7.6 38 7.8 WSW 13 24 7 13 - - 0.0
30/02:00pm 21.5 19.8 7.7 41 7.2 S 6 15 3 8 - - 0.0
30/01:30pm 20.8 18.6 7.8 43 6.7 WSW 9 15 5 8 - - 0.0
30/01:00pm 20.2 17.2 7.9 45 6.4 W 13 20 7 11 - - 0.0
30/12:30pm 20.1 17.6 8.1 46 6.2 NW 11 20 6 11 - - 0.0
30/12:00pm 19.3 16.4 8.3 49 5.7 WSW 13 24 7 13 - - 0.0
30/11:30am 17.8 15.0 8.4 54 4.8 W 13 22 7 12 - - 0.0
30/11:00am 17.5 14.6 8.1 54 4.8 W 13 17 7 9 - - 0.0
30/10:30am 17.2 14.2 7.8 54 4.8 W 13 19 7 10 - - 0.0
30/10:00am 16.5 13.9 7.7 56 4.4 WNW 11 17 6 9 - - 0.0
30/09:30am 15.5 12.0 7.3 58 4.1 WNW 15 22 8 12 - - 0.0
30/09:00am 15.7 13.2 8.4 62 3.7 WNW 11 19 6 10 - - 0.0
30/08:30am 15.2 13.9 9.1 67 3.1 NW 6 11 3 6 - - 0.0
30/08:00am 13.6 11.8 9.3 75 2.2 N 9 11 5 6 - - 0.0
30/07:30am 12.7 12.7 9.7 82 1.5 NNW 0 0 0 0 - - 0.0
30/07:00am 12.0 12.0 9.7 86 1.2 CALM 0 6 0 3 - - 0.0
30/06:30am 11.7 11.5 9.1 84 1.3 CALM 0 0 0 0 - - 0.0
30/06:00am 11.6 11.5 9.3 86 1.2 NW 0 0 0 0 - - 0.0
30/05:30am 11.2 9.9 9.1 87 1.0 NW 6 9 3 5 - - 0.0
30/05:00am 11.0 9.0 8.6 85 1.2 NNE 9 11 5 6 - - 0.0
30/04:30am 11.7 10.8 9.3 85 1.2 N 4 7 2 4 - - 0.0
30/04:00am 11.3 9.9 8.7 84 1.3 SW 6 11 3 6 - - 0.0
30/03:30am 11.4 11.4 9.8 90 0.8 CALM 0 0 0 0 - - 0.0
30/03:00am 11.2 11.2 9.9 92 0.7 CALM 0 0 0 0 - - 0.0
30/02:30am 11.0 10.6 9.8 92 0.6 NNW 2 7 1 4 - - 0.0
30/02:00am 10.9 11.0 10.0 94 0.5 CALM 0 0 0 0 - - 0.0
30/01:30am 10.5 10.5 9.9 96 0.3 CALM 0 0 0 0 - - 0.0
30/01:00am 9.2 7.1 8.4 95 0.4 N 9 11 5 6 - - 0.0
30/12:30am 7.7 5.7 6.3 91 0.6 NW 6 7 3 4 - - 0.0
30/12:00am 8.4 6.6 7.0 91 0.7 NNW 6 7 3 4 - - 0.0
 
Date/Time
CDT
Temp
°C
App
Temp
°C
Dew
Point
Rel
Hum
%
Delta-T
°C
Wind Press
QNH
hPa
Press
MSL
hPa
Rain
since 9 am
mm
Dir
 
Spd
km/h
Gust
km/h
Spd
kts
Gust
kts
29/11:30pm 9.1 8.5 7.4 89 0.8 CALM 0 0 0 0 - - 0.0
29/11:00pm 9.9 9.5 8.2 89 0.8 CALM 0 0 0 0 - - 0.0
29/10:30pm 10.8 10.5 8.7 87 1.0 CALM 0 0 0 0 - - 0.0
29/10:00pm 11.3 11.1 9.2 87 1.1 CALM 0 0 0 0 - - 0.0
29/09:30pm 12.0 11.5 9.2 83 1.4 S 2 7 1 4 - - 0.0
29/09:00pm 12.9 11.6 10.1 83 1.4 S 7 13 4 7 - - 0.0
29/08:30pm 13.6 12.1 10.6 82 1.6 S 9 15 5 8 - - 0.0
29/08:00pm 14.1 12.1 10.1 77 2.1 SSW 11 17 6 9 - - 0.0
29/07:30pm 14.9 12.1 10.1 73 2.5 SW 15 24 8 13 - - 0.0
29/07:00pm 16.4 13.4 9.3 63 3.7 SW 15 22 8 12 - - 0.0
29/06:30pm 18.1 14.4 9.5 57 4.5 WSW 19 28 10 15 - - 0.0
29/06:00pm 18.8 14.8 9.0 53 5.1 WSW 20 30 11 16 - - 0.0
29/05:30pm 19.5 15.4 8.8 50 5.6 W 20 30 11 16 - - 0.0
29/05:00pm 20.5 16.6 9.4 49 5.9 W 20 33 11 18 - - 0.0
29/04:30pm 20.5 16.7 9.7 50 5.8 W 20 35 11 19 - - 0.0
29/04:00pm 20.8 16.6 9.7 49 6.0 W 22 32 12 17 - - 0.0
29/03:30pm 20.7 16.7 9.0 47 6.2 W 20 33 11 18 - - 0.0
29/03:00pm 21.3 17.3 8.9 45 6.6 W 20 35 11 19 - - 0.0
29/02:30pm 21.4 17.4 9.0 45 6.6 W 20 32 11 17 - - 0.0
29/02:00pm 20.4 16.4 9.0 48 6.0 WNW 20 30 11 16 - - 0.0
29/01:30pm 20.3 16.3 8.9 48 6.0 W 20 32 11 17 - - 0.0
29/01:00pm 19.3 16.2 8.9 51 5.5 WNW 15 20 8 11 - - 0.0
29/12:30pm 18.8 15.2 8.2 50 5.5 NNW 17 26 9 14 - - 0.0
29/12:00pm 18.2 14.6 8.5 53 5.0 WNW 17 24 9 13 - - 0.0
29/11:30am 17.7 14.2 8.8 56 4.6 NW 17 26 9 14 - - 0.0
29/11:00am 17.2 13.7 8.6 57 4.4 WNW 17 22 9 12 - - 0.0
29/10:30am 16.3 14.3 8.8 61 3.9 NNW 9 19 5 10 - - 0.0
29/10:00am 14.2 13.2 10.2 77 2.1 W 6 15 3 8 - - 0.0
29/09:30am 14.9 12.4 9.7 71 2.7 WNW 13 20 7 11 - - 0.0
29/09:00am 15.0 12.7 9.1 68 3.0 N 11 15 6 8 - - 0.0
29/08:30am 14.4 12.2 9.4 72 2.6 NNW 11 15 6 8 - - 0.0
29/08:00am 13.6 11.4 9.3 75 2.2 NNW 11 15 6 8 - - 0.0
29/07:30am 12.8 11.9 9.3 79 1.8 N 4 9 2 5 - - 0.0
29/07:00am 11.9 11.8 9.3 84 1.3 CALM 0 0 0 0 - - 0.0
29/06:30am 11.4 10.6 9.5 88 1.0 N 4 7 2 4 - - 0.0
29/06:00am 11.2 11.1 9.5 89 0.9 CALM 0 0 0 0 - - 0.0
29/05:30am 11.0 10.9 9.3 89 0.9 CALM 0 0 0 0 - - 0.0
29/05:00am 10.8 9.3 9.2 90 0.8 N 7 9 4 5 - - 0.0
29/04:30am 10.4 8.8 8.8 90 0.8 NNW 7 9 4 5 - - 0.0
29/04:00am 10.0 8.4 8.8 92 0.6 NNW 7 11 4 6 - - 0.0
29/03:30am 9.5 9.0 7.9 90 0.8 CALM 0 0 0 0 - - 0.0
29/03:00am 9.9 9.6 8.5 91 0.7 CALM 0 0 0 0 - - 0.0
29/02:30am 9.8 9.5 8.7 93 0.5 CALM 0 0 0 0 - - 0.0
29/02:00am 9.0 7.8 8.2 95 0.4 N 4 7 2 4 - - 0.0
29/01:30am 7.2 5.0 6.0 92 0.5 N 7 9 4 5 - - 0.0
29/01:00am 7.6 5.4 6.2 91 0.6 N 7 7 4 4 - - 0.0
29/12:30am 7.3 5.0 5.6 89 0.8 N 7 7 4 4 - - 0.0
29/12:00am 7.9 5.7 6.4 90 0.7 N 7 9 4 5 - - 0.0
 
Date/Time
CDT
Temp
°C
App
Temp
°C
Dew
Point
Rel
Hum
%
Delta-T
°C
Wind Press
QNH
hPa
Press
MSL
hPa
Rain
since 9 am
mm
Dir
 
Spd
km/h
Gust
km/h
Spd
kts
Gust
kts
28/11:30pm 8.2 5.7 6.7 90 0.7 NNW 9 9 5 5 - - 0.0
28/11:00pm 8.6 6.5 6.7 88 0.9 N 7 9 4 5 - - 0.0
28/10:30pm 9.4 8.7 7.0 85 1.1 CALM 0 0 0 0 - - 0.0
28/10:00pm 10.3 9.8 7.7 84 1.3 CALM 0 0 0 0 - - 0.0
28/09:30pm 10.4 9.3 6.9 79 1.7 WSW 2 7 1 4 - - 0.0
28/09:00pm 11.2 8.9 7.3 77 1.9 W 9 11 5 6 - - 0.0
28/08:30pm 12.6 9.9 7.3 70 2.6 W 11 15 6 8 - - 0.0
28/08:00pm 13.5 10.0 7.1 65 3.1 W 15 22 8 12 - - 0.0
28/07:30pm 14.4 11.4 7.7 64 3.3 WSW 13 19 7 10 - - 0.0
28/07:00pm 15.5 10.4 7.5 59 4.0 W 24 37 13 20 - - 0.0
28/06:30pm 16.1 11.6 7.1 55 4.5 SW 20 28 11 15 - - 0.0
28/06:00pm 16.9 11.6 6.7 51 5.0 W 24 33 13 18 - - 0.0
28/05:30pm 17.6 12.6 6.5 48 5.5 W 22 35 12 19 - - 0.0
28/05:00pm 17.6 12.0 5.5 45 5.9 WSW 24 41 13 22 - - 0.0
28/04:30pm 19.1 13.5 5.6 41 6.6 WSW 24 43 13 23 - - 0.0
28/04:00pm 19.2 13.0 6.3 43 6.4 W 28 41 15 22 - - 0.0
28/03:46pm 19.3 12.9 5.4 40 6.8 W 28 46 15 25 - - 0.0
28/03:30pm 19.0 12.9 6.5 44 6.2 W 28 39 15 21 - - 0.0
28/03:22pm 19.3 12.9 7.1 45 6.2 W 30 48 16 26 - - 0.0
28/03:00pm 18.7 12.7 7.2 47 5.8 W 28 44 15 24 - - 0.0
28/02:42pm 19.2 12.9 7.3 46 6.0 WSW 30 48 16 26 - - 0.0
28/02:30pm 19.4 12.8 7.8 47 6.0 W 32 46 17 25 - - 0.0
28/02:00pm 19.6 12.8 6.7 43 6.5 W 32 46 17 25 - - 0.0
28/01:30pm 18.4 12.4 8.7 53 5.0 W 30 50 16 27 - - 0.0
28/01:08pm 17.8 11.5 8.9 56 4.6 W 32 50 17 27 - - 0.0
28/01:00pm 18.4 11.7 8.1 51 5.3 W 33 50 18 27 - - 0.0
28/12:54pm 18.9 12.3 7.7 48 5.7 W 32 50 17 27 - - 0.0
28/12:30pm 18.2 12.0 10.1 59 4.3 W 33 44 18 24 - - 0.0
28/12:00pm 17.6 11.7 9.2 58 4.4 WSW 30 43 16 23 - - 0.0
28/11:30am 17.0 11.3 9.7 62 3.8 W 30 44 16 24 - - 0.0
28/11:00am 17.1 10.4 8.3 56 4.5 W 33 54 18 29 - - 0.0
28/10:43am 16.9 10.6 8.8 59 4.2 W 32 50 17 27 - - 0.0
28/10:30am 16.7 11.6 9.1 61 3.9 W 26 43 14 23 - - 0.0
28/10:00am 14.9 11.1 11.3 79 1.9 W 22 32 12 17 - - 0.0
28/09:36am 15.1 9.8 11.1 77 2.1 W 30 48 16 26 - - 0.0
28/09:30am 16.3 11.1 9.0 62 3.8 W 26 43 14 23 - - 0.0
28/09:25am 16.2 10.6 8.7 61 3.8 W 28 46 15 25 - - 0.0
28/09:00am 16.0 10.1 9.0 63 3.6 W 30 44 16 24 - - 0.6
28/08:30am 16.0 10.3 9.7 66 3.3 W 30 44 16 24 - - 0.6
28/08:00am 15.0 10.1 10.0 72 2.6 W 26 39 14 21 - - 0.6
28/07:30am 14.2 11.3 9.6 74 2.4 W 15 24 8 13 - - 0.6
28/07:00am 12.6 10.1 9.8 83 1.4 WNW 13 20 7 11 - - 0.6
28/06:30am 11.8 8.9 9.5 86 1.2 WNW 15 20 8 11 - - 0.6
28/06:00am 11.7 8.4 9.6 87 1.1 WNW 17 22 9 12 - - 0.6
28/05:30am 11.9 7.5 9.1 83 1.4 W 22 30 12 16 - - 0.6
28/05:00am 12.8 8.6 9.6 81 1.6 W 22 33 12 18 - - 0.6
28/04:30am 13.2 8.0 8.7 74 2.3 W 26 39 14 21 - - 0.6
28/04:00am 13.2 9.0 8.1 71 2.5 W 20 30 11 16 - - 0.6
28/03:30am 12.8 8.7 8.7 76 2.1 WNW 20 28 11 15 - - 0.6
28/03:00am 12.5 8.1 9.0 79 1.8 W 22 41 12 22 - - 0.6
28/02:30am 13.5 8.6 6.8 64 3.2 WNW 22 35 12 19 - - 0.6
28/02:00am 13.3 8.3 6.4 63 3.3 WNW 22 33 12 18 - - 0.6
28/01:30am 13.1 7.9 7.1 67 2.9 W 24 37 13 20 - - 0.6
28/01:00am 13.1 8.6 7.1 67 2.9 W 20 28 11 15 - - 0.6
28/12:30am 11.7 8.5 6.8 72 2.3 WNW 13 17 7 9 - - 0.6
28/12:00am 10.9 8.4 6.5 74 2.1 NW 9 11 5 6 - - 0.6
 
Date/Time
CDT
Temp
°C
App
Temp
°C
Dew
Point
Rel
Hum
%
Delta-T
°C
Wind Press
QNH
hPa
Press
MSL
hPa
Rain
since 9 am
mm
Dir
 
Spd
km/h
Gust
km/h
Spd
kts
Gust
kts
27/11:30pm 10.5 7.9 6.3 75 2.0 NW 9 11 5 6 - - 0.6
27/11:00pm 10.5 7.5 5.9 73 2.1 NW 11 15 6 8 - - 0.6

Other Formats:

Comma delimited format used in spreadsheet applications
http://www.bom.gov.au/fwo/IDS60801/IDS60801.95823.axf

JavaScript Object Notation format (JSON) in row-major order
http://www.bom.gov.au/fwo/IDS60801/IDS60801.95823.json